Voltar ao catálogo

DELTA 1 DEB

AtivoSSO
NORAD 7155·DEBRIS·🇺🇸 United States

Lançado Nov 6, 1973 de Vandenberg Space Force Base

Loading…

Próximas Passagens (próximas 24 horas)

TLE

AtualizadoSource: Space-Track

Época: Sep 14, 2026, 05:53 UTC

1 07155U 73086DU  26257.24543711  .00000113  00000-0  11568-2 0  9999
2 07155 102.3630 171.4257 0129418 353.9542 159.7271 12.40427388386916

Acompanhe DELTA 1 DEB em tempo real com AllMySat

Download on the App Store